Regional Weather Roundup
Issued by NWS Cleveland, OH

Home | Current Version | Previous Version | Text Only | Print | Product List | Glossary Off
Versions: 1 2 3 4 5 6 7 8 9 10 11 12 13 14 15 16 17 18 19 20 21 22 23 24 25 26 27 28 29 30 31 32 33 34 35 36 37 38 39 40 41 42 43 44 45 46 47 48 49 50

000
ASUS41 KCLE 270800
RWRCLE
OHIO REGIONAL WEATHER ROUNDUP
NATIONAL WEATHER SERVICE WILMINGTON, OH
400 AM EDT WED AUG 27 2014

NOTE: "FAIR" INDICATES FEW OR NO CLOUDS BELOW 12,000 FEET WITH NO
SIGNIFICANT WEATHER AND/OR OBSTRUCTIONS TO VISIBILITY.

OHZ001>008-015>018-024>027-034-035-043-044-270900-
   NORTHWEST OHIO

CITY           SKY/WX    TMP DP  RH WIND       PRES   REMARKS
DEFIANCE       MOCLDY    70  67  90 CALM      30.09S FOG
FINDLAY        FOG       69  67  93 CALM      30.08S VSB 1/2
TOLEDO EXPRESS PTCLDY    70  68  93 CALM      30.08S
TOLEDO METCALF CLEAR     71  66  84 N3        30.08F
LIMA           CLOUDY    71  68  90 CALM      30.09S
$$

OHZ009>014-019>023-028>033-038-089-270900-
   NORTHEAST OHIO

CITY           SKY/WX    TMP DP  RH WIND       PRES   REMARKS
CLE-HOPKINS    MOCLDY    71  68  90 CALM      30.10S
CLE-LAKEFRONT  MOCLDY    73  69  87 CALM      30.07R
CUY CO. ARPT   NOT AVBL
LORAIN-ELYRIA  MOCLDY    74  68  81 CALM      30.09S
ASHTABULA      MOCLDY    70  67  90 W3        30.08S
AKRON-CANTON   CLOUDY    73  66  78 SW5       30.09F
WOOSTER        NOT AVBL
MANSFIELD      CLEAR     72  70  93 W7        30.10S
YOUNGSTOWN     CLOUDY    72  67  84 SW7       30.08F
$$

OHZ042-051>053-060>062-070>072-077>081-270900-
  SOUTHWEST OHIO

CITY           SKY/WX    TMP DP  RH WIND       PRES   REMARKS
CINC-COVINGTON PTCLDY    70  67  90 CALM      30.09F
CINC-LUNKEN    PTCLDY    69  69 100 CALM      30.09S FOG
HAMILTON       PTCLDY    69  68  96 CALM      30.09F FOG
DAYTON         NOT AVBL
WRIGHT-PAT AFB PTCLDY    70  68  94 CALM      30.09S
DAYTON GENERAL PTCLDY    72  69  90 S5        30.09S
WILMINGTON     CLEAR     69  65  86 CALM      30.09F
$$

OHZ036-037-039>041-045>050-054>059-063>069-073>076-082>088-270900-
  CENTRAL AND SOUTHEAST OHIO

CITY           SKY/WX    TMP DP  RH WIND       PRES   REMARKS
COLUMBUS       PTCLDY    74  67  78 CALM      30.08F
OSU AIRPORT    CLEAR     71  68  90 W5        30.09S
BOLTON FIELD   NOT AVBL
RICKENBACK AFB NOT AVBL
NEWARK         CLEAR     65  64  97 NW3       30.09S FOG
MARION         CLEAR     70  67  90 SW3       30.10R FOG
LANCASTER      CLEAR     67  64  90 CALM      30.09F
ZANESVILLE     CLOUDY    68  65  90 SE3       30.09F FOG
NEW PHILLY     PTCLDY    68  67  96 CALM      30.10S FOG
$$


USA.gov is the U.S. government's official web portal to all federal, state and local government web resources and services.